Voltar ao catálogo

USA 576

AtivoMilitarVLEO
NORAD 67488·PAYLOAD·🇺🇸 United States

Lançado Jan 17, 2026 de Vandenberg Space Force Base

Loading…

Próximas Passagens (próximas 24 horas)

TLE

ObsoletoSource: Mike McCants

Época: Jul 15, 2026, 01:05 UTC

1 67488U 26011E   26196.04533004 0.00000000  00000-0  00000-0 0    09
2 67488  70.0260 167.0838 0002000 195.2748 164.7251 14.96713600    04

Acompanhe USA 576 em tempo real com AllMySat

Download on the App Store